.
WxDataArchive / Data Records for 2010-06-28
2010-06-27 June 2010 2010-06-29

Data Records for Monday, 28 June 2010

Time	Temp	Chill	HIndex	Humid	Dewpt	 Wind 	HiWind	WindDir	Rain 	Barom 
-----	----	-----	------	-----	-----	------	------	-------	-----	----- 
00:00	73.2	73.2	73.2	92	70.7	0	0	---	0.00	29.617 
00:05	73.2	73.2	73.2	92	70.7	0	0	---	0.00	29.617 
00:10	73.0	73.0	73.0	92	70.5	0	0	---	0.00	29.617 
00:15	73.0	73.0	73.0	92	70.5	0	0	---	0.00	29.608 
00:20	73.0	73.0	73.0	93	70.8	0	0	---	0.00	29.608 
00:25	72.8	72.8	72.8	93	70.7	0	0	---	0.00	29.608 
00:30	72.8	72.8	72.8	93	70.7	0	0	---	0.00	29.606 
00:35	72.8	72.8	72.8	93	70.7	0	0	---	0.00	29.606 
00:40	72.7	72.7	72.7	93	70.6	0	0	---	0.00	29.606 
00:45	72.7	72.7	72.7	93	70.6	0	0	---	0.00	29.601 
00:50	72.7	72.7	72.7	94	70.9	0	0	---	0.00	29.601 
00:55	72.7	72.7	72.7	94	70.9	0	0	---	0.00	29.601 
01:00	72.8	72.8	72.8	94	71.0	0	0	---	0.00	29.607 
01:05	73.0	73.0	73.0	94	71.2	0	0	---	0.00	29.607 
01:10	73.2	73.2	73.2	94	71.4	0	0	---	0.00	29.607 
01:15	73.3	73.3	73.3	95	71.8	0	0	---	0.00	29.603 
01:20	73.5	73.5	73.5	95	72.0	0	0	---	0.00	29.603 
01:25	73.7	73.7	73.7	95	72.2	0	0	---	0.00	29.603 
01:30	73.7	73.7	73.7	95	72.2	0	0	---	0.00	29.607 
01:35	73.7	73.7	73.7	95	72.2	0	0	---	0.00	29.607 
01:40	73.5	73.5	73.5	95	72.0	0	0	---	0.00	29.607 
01:45	73.3	73.3	73.3	95	71.8	0	0	---	0.00	29.605 
01:50	73.3	73.3	73.3	95	71.8	0	0	---	0.00	29.605 
01:55	73.2	73.2	73.2	95	71.7	0	0	---	0.00	29.605 
02:00	73.2	73.2	73.2	95	71.7	0	0	---	0.00	29.604 
02:05	73.2	73.2	73.2	95	71.7	0	0	---	0.00	29.604 
02:10	73.2	73.2	73.2	95	71.7	0	1	248	0.00	29.604 
02:15	73.3	73.3	73.3	95	71.8	0	1	248	0.00	29.608 
02:20	73.5	73.5	73.5	95	72.0	0	1	248	0.00	29.608 
02:25	73.7	73.7	73.7	95	72.2	0	0	---	0.00	29.608 
02:30	73.7	73.7	73.7	95	72.2	0	0	---	0.00	29.602 
02:35	73.9	73.9	73.9	94	72.1	0	1	248	0.00	29.602 
02:40	73.9	73.9	73.9	94	72.1	0	0	---	0.00	29.602 
02:45	74.0	74.0	74.0	94	72.2	0	0	---	0.00	29.601 
02:50	74.0	74.0	74.0	94	72.2	0	0	---	0.00	29.601 
02:55	74.0	74.0	74.0	94	72.2	0	1	248	0.00	29.601 
03:00	74.2	74.2	74.2	94	72.4	0	0	---	0.00	29.600 
03:05	74.2	74.2	74.2	94	72.4	0	0	---	0.00	29.600 
03:10	74.2	74.2	74.2	94	72.4	0	0	---	0.00	29.600 
03:15	74.2	74.2	74.2	94	72.4	0	0	---	0.00	29.596 
03:20	74.2	74.2	74.2	94	72.4	0	1	248	0.00	29.596 
03:25	74.2	74.2	74.2	94	72.4	0	1	248	0.00	29.596 
03:30	74.2	74.2	74.2	94	72.4	0	2	248	0.00	29.595 
03:35	74.2	74.2	74.2	94	72.4	0	0	---	0.00	29.595 
03:40	74.2	74.2	74.2	94	72.4	0	1	248	0.00	29.595 
03:45	74.2	74.2	74.2	94	72.4	0	2	248	0.00	29.592 
03:50	74.2	74.2	74.2	94	72.4	0	1	248	0.00	29.592 
03:55	74.2	74.2	74.2	94	72.4	0	1	248	0.00	29.592 
04:00	74.2	74.2	74.2	94	72.4	0	2	248	0.00	29.591 
04:05	74.4	74.4	74.4	94	72.6	0	1	248	0.00	29.591 
04:10	74.4	74.4	74.4	94	72.6	0	2	248	0.00	29.591 
04:15	74.4	74.4	74.4	94	72.6	0	1	248	0.00	29.593 
04:20	74.4	74.4	74.4	94	72.6	0	2	248	0.00	29.593 
04:25	74.4	74.4	74.4	94	72.6	0	3	248	0.00	29.593 
04:30	74.2	74.2	74.2	94	72.4	0	3	248	0.00	29.593 
04:35	74.2	74.2	74.2	93	72.0	0	4	248	0.00	29.593 
04:40	74.2	74.2	74.2	94	72.4	0	2	292	0.00	29.593 
04:45	74.2	74.2	74.2	94	72.4	0	1	292	0.00	29.594 
04:50	74.0	74.0	74.0	94	72.2	0	2	292	0.00	29.594 
04:55	74.0	74.0	74.0	94	72.2	0	2	292	0.00	29.594 
05:00	74.0	74.0	74.0	94	72.2	0	2	292	0.00	29.592 
05:05	74.0	74.0	74.0	94	72.2	0	1	292	0.00	29.592 
05:10	74.0	74.0	74.0	94	72.2	0	3	292	0.00	29.592 
05:15	74.0	74.0	74.0	94	72.2	0	2	292	0.00	29.600 
05:20	74.0	74.0	74.0	94	72.2	0	3	292	0.00	29.600 
05:25	74.0	74.0	74.0	94	72.2	0	1	292	0.00	29.600 
05:30	74.0	74.0	74.0	94	72.2	0	2	292	0.00	29.610 
05:35	74.0	74.0	74.0	94	72.2	0	2	292	0.00	29.610 
05:40	74.2	74.2	74.2	94	72.4	0	1	292	0.00	29.610 
05:45	74.2	74.2	74.2	94	72.4	0	2	292	0.00	29.616 
05:50	74.2	74.2	74.2	94	72.4	0	2	292	0.00	29.616 
05:55	74.2	74.2	74.2	94	72.4	0	3	292	0.01	29.616 
06:00	74.2	74.2	74.2	94	72.4	0	1	292	0.00	29.616 
06:05	74.2	74.2	74.2	94	72.4	0	1	292	0.00	29.616 
06:10	74.0	74.0	74.0	94	72.2	0	1	292	0.00	29.616 
06:15	74.0	74.0	74.0	94	72.2	0	1	292	0.00	29.619 
06:20	74.2	74.2	74.2	94	72.4	0	2	292	0.00	29.619 
06:25	74.2	74.2	74.2	94	72.4	0	2	292	0.00	29.619 
06:30	74.0	74.0	74.0	94	72.2	1	2	292	0.00	29.619 
06:35	74.0	74.0	74.0	94	72.2	0	1	292	0.00	29.619 
06:40	74.0	74.0	74.0	94	72.2	0	2	292	0.00	29.619 
06:45	74.0	74.0	74.0	94	72.2	0	1	292	0.01	29.631 
06:50	73.9	73.9	73.9	94	72.1	0	1	292	0.00	29.631 
06:55	73.9	73.9	73.9	94	72.1	0	1	292	0.00	29.631 
07:00	73.9	73.9	73.9	94	72.1	0	2	292	0.00	29.630 
07:05	73.9	73.9	73.9	94	72.1	0	1	292	0.00	29.630 
07:10	73.7	73.7	73.7	94	71.9	0	1	292	0.00	29.630 
07:15	73.7	73.7	73.7	94	71.9	0	0	---	0.00	29.631 
07:20	73.7	73.7	73.7	94	71.9	0	2	292	0.00	29.631 
07:25	73.5	73.5	73.5	94	71.7	0	1	292	0.00	29.631 
07:30	73.5	73.5	73.5	94	71.7	0	2	292	0.00	29.631 
07:35	73.3	73.3	73.3	94	71.5	1	3	292	0.00	29.631 
07:40	73.2	73.2	73.2	94	71.4	0	1	292	0.00	29.631 
07:45	73.2	73.2	73.2	94	71.4	0	2	292	0.00	29.641 
07:50	73.2	73.2	73.2	94	71.4	0	2	292	0.00	29.641 
07:55	73.3	73.3	73.3	94	71.5	1	3	292	0.00	29.641 
08:00	73.5	73.5	73.5	94	71.7	1	3	292	0.00	29.637 
08:05	73.5	73.5	73.5	93	71.3	1	5	270	0.00	29.637 
08:10	73.5	73.5	73.5	93	71.3	1	4	270	0.00	29.637 
08:15	73.5	73.5	73.5	93	71.3	1	4	270	0.00	29.642 
08:20	73.5	73.5	73.5	92	71.0	0	2	270	0.00	29.642 
08:25	73.3	73.3	73.3	92	70.8	1	4	270	0.00	29.642 
08:30	73.5	73.5	73.5	92	71.0	1	3	270	0.00	29.645 
08:35	73.5	73.5	73.5	92	71.0	1	3	270	0.00	29.645 
08:40	73.5	73.5	73.5	92	71.0	0	3	270	0.00	29.645 
08:45	73.7	73.7	73.7	92	71.2	1	4	270	0.00	29.648 
08:50	73.7	73.7	73.7	92	71.2	2	5	270	0.00	29.648 
08:55	73.9	73.9	73.9	92	71.4	1	3	270	0.00	29.648 
09:00	74.0	74.0	74.0	92	71.5	2	5	270	0.01	29.648 
09:05	74.4	74.4	74.4	91	71.6	1	3	292	0.00	29.648 
09:10	74.4	74.4	74.4	90	71.3	2	3	270	0.00	29.648 
09:15	74.6	74.6	74.6	90	71.5	1	5	270	0.00	29.653 
09:20	74.7	74.7	74.7	90	71.6	1	3	248	0.00	29.653 
09:25	74.7	74.7	74.7	89	71.2	2	6	270	0.00	29.653 
09:30	75.3	75.3	74.8	89	71.8	1	4	270	0.00	29.654 
09:35	75.4	75.4	75.1	88	71.6	1	3	270	0.00	29.654 
09:40	75.6	75.6	75.5	88	71.8	1	4	270	0.00	29.654 
09:45	75.8	75.8	76.0	87	71.6	1	3	270	0.00	29.657 
09:50	75.6	75.6	75.6	87	71.4	2	4	270	0.00	29.657 
09:55	76.0	76.0	76.4	87	71.8	0	2	270	0.00	29.657 
10:00	76.5	76.5	77.3	87	72.3	1	3	270	0.00	29.659 
10:05	76.7	76.7	77.9	84	71.5	2	4	270	0.00	29.659 
10:10	76.8	76.8	78.1	83	71.2	3	5	248	0.00	29.659 
10:15	77.2	77.2	78.8	83	71.6	2	5	292	0.00	29.660 
10:20	77.2	77.2	78.9	82	71.3	3	6	270	0.00	29.660 
10:25	77.4	77.4	79.2	81	71.1	3	6	270	0.00	29.660 
10:30	77.7	77.7	79.8	80	71.0	3	5	292	0.00	29.659 
10:35	77.9	77.9	80.1	80	71.2	2	5	292	0.00	29.659 
10:40	78.1	78.1	80.5	80	71.4	2	4	315	0.00	29.659 
10:45	77.7	77.7	79.7	78	70.3	3	7	315	0.00	29.662 
10:50	77.6	77.6	79.6	79	70.6	2	4	292	0.00	29.662 
10:55	77.4	77.4	79.3	78	70.0	2	5	315	0.00	29.662 
11:00	77.9	77.9	80.1	77	70.1	2	5	270	0.00	29.666 
11:05	78.5	78.5	80.9	73	69.1	3	6	270	0.00	29.666 
11:10	79.0	79.0	81.3	69	67.9	3	6	292	0.00	29.666 
11:15	79.6	79.6	81.8	65	66.8	2	6	292	0.00	29.671 
11:20	79.9	79.9	82.1	64	66.6	2	6	338	0.00	29.671 
11:25	79.9	79.9	81.9	62	65.7	3	7	270	0.00	29.671 
11:30	79.9	79.9	82.0	63	66.2	3	6	270	0.00	29.665 
11:35	80.5	80.5	82.4	60	65.3	2	4	270	0.00	29.665 
11:40	80.5	80.5	82.1	57	63.8	3	7	270	0.00	29.665 
11:45	80.5	80.5	81.9	56	63.3	3	6	292	0.00	29.667 
11:50	80.7	80.7	82.4	58	64.5	2	5	315	0.00	29.667 
11:55	80.9	80.9	82.4	56	63.7	3	6	292	0.00	29.667 
12:00	81.2	81.2	82.5	54	62.9	4	9	270	0.00	29.667 
12:05	81.2	81.2	82.5	54	62.9	3	9	292	0.00	29.667 
12:10	81.4	81.4	83.1	57	64.7	3	7	270	0.00	29.667 
12:15	81.1	81.1	82.2	53	62.3	4	9	270	0.00	29.675 
12:20	81.1	81.1	82.9	58	64.9	3	8	270	0.00	29.675 
12:25	81.4	81.4	82.8	55	63.7	3	6	270	0.00	29.675 
12:30	81.8	81.8	82.8	52	62.4	2	6	270	0.00	29.677 
12:35	81.8	81.8	82.8	52	62.4	3	5	270	0.00	29.677 
12:40	82.2	82.2	83.0	50	61.7	2	6	270	0.00	29.677 
12:45	81.8	81.8	82.3	48	60.2	3	6	292	0.00	29.679 
12:50	81.4	81.4	82.3	51	61.5	2	6	270	0.00	29.679 
12:55	82.0	82.0	82.8	50	61.5	3	5	270	0.00	29.679 
13:00	82.4	82.4	83.0	49	61.3	4	9	270	0.00	29.682 
13:05	82.6	82.6	83.3	49	61.5	3	5	292	0.00	29.682 
13:10	82.6	82.6	83.3	49	61.5	4	6	270	0.00	29.682 
13:15	82.4	82.4	83.2	50	61.9	2	5	315	0.00	29.687 
13:20	82.2	82.2	83.3	52	62.8	3	11	292	0.00	29.687 
13:25	82.4	82.4	83.9	54	64.1	4	11	270	0.00	29.687 
13:30	82.4	82.4	83.4	51	62.4	4	9	270	0.00	29.691 
13:35	82.4	82.4	83.5	52	63.0	3	7	270	0.00	29.691 
13:40	82.0	82.0	83.1	52	62.6	3	6	315	0.00	29.691 
13:45	81.1	81.1	82.6	56	63.9	3	5	292	0.00	29.696 
13:50	81.6	81.6	82.3	50	61.1	3	9	292	0.00	29.696 
13:55	80.9	80.9	81.4	48	59.3	4	10	270	0.00	29.696 
14:00	80.9	80.9	81.3	47	58.8	3	7	292	0.00	29.705 
14:05	80.9	80.9	81.5	49	59.9	3	7	315	0.00	29.705 
14:10	81.1	81.1	81.7	49	60.1	2	4	292	0.00	29.705 
14:15	81.1	81.1	81.6	48	59.5	2	7	315	0.00	29.705 
14:20	81.4	81.4	81.6	46	58.6	3	6	315	0.00	29.705 
14:25	81.6	81.6	81.8	46	58.8	3	6	270	0.00	29.705 
14:30	82.0	82.0	81.7	42	56.6	3	6	270	0.00	29.708 
14:35	81.8	81.8	81.5	42	56.4	3	6	270	0.00	29.708 
14:40	81.8	81.8	81.8	44	57.7	2	6	338	0.00	29.708 
14:45	82.2	82.2	81.5	39	54.7	3	7	292	0.00	29.709 
14:50	82.0	82.0	81.5	40	55.3	4	10	270	0.00	29.709 
14:55	82.0	82.0	81.7	42	56.6	3	7	270	0.00	29.709 
15:00	82.2	82.2	82.1	44	58.1	2	6	292	0.00	29.713 
15:05	82.4	82.4	81.3	36	52.7	3	7	270	0.00	29.713 
15:10	82.4	82.4	81.6	38	54.2	4	9	270	0.00	29.713 
15:15	82.2	82.2	81.4	38	54.0	4	7	270	0.00	29.718 
15:20	82.2	82.2	81.4	38	54.0	3	10	270	0.00	29.718 
15:25	82.0	82.0	81.2	38	53.9	4	7	292	0.00	29.718 
15:30	82.2	82.2	81.6	40	55.4	3	6	270	0.00	29.721 
15:35	82.2	82.2	81.3	37	53.3	3	6	315	0.00	29.721 
15:40	82.2	82.2	81.6	40	55.4	2	5	270	0.00	29.721 
15:45	82.4	82.4	81.7	39	54.9	3	7	270	0.00	29.723 
15:50	82.4	82.4	81.2	35	52.0	4	10	270	0.00	29.723 
15:55	82.0	82.0	81.1	37	53.1	4	9	270	0.00	29.723 
16:00	82.0	82.0	81.2	38	53.9	3	9	270	0.00	29.729 
16:05	82.2	82.2	81.4	38	54.0	3	6	292	0.00	29.729 
16:10	82.2	82.2	81.5	39	54.7	3	6	270	0.00	29.729 
16:15	82.2	82.2	81.4	38	54.0	3	5	315	0.00	29.725 
16:20	82.0	82.0	81.3	39	54.6	3	7	270	0.00	29.725 
16:25	82.0	82.0	81.3	39	54.6	3	5	292	0.00	29.725 
16:30	81.8	81.8	81.1	38	53.7	3	7	292	0.00	29.727 
16:35	82.0	82.0	81.5	40	55.3	3	6	270	0.00	29.727 
16:40	82.4	82.4	82.0	42	57.0	1	5	292	0.00	29.727 
16:45	82.4	82.4	82.0	42	57.0	3	7	315	0.00	29.731 
16:50	82.6	82.6	82.1	41	56.5	2	5	292	0.00	29.731 
16:55	82.6	82.6	81.8	39	55.1	2	5	315	0.00	29.731 
17:00	82.4	82.4	81.8	40	55.6	3	6	315	0.00	29.730 
17:05	81.8	81.8	81.5	42	56.4	2	7	315	0.00	29.730 
17:10	81.8	81.8	81.5	42	56.4	2	5	338	0.00	29.730 
17:15	82.2	82.2	81.7	41	56.1	2	5	292	0.00	29.731 
17:20	82.0	82.0	81.6	41	55.9	2	6	292	0.00	29.731 
17:25	81.8	81.8	81.3	40	55.1	2	6	315	0.00	29.731 
17:30	81.8	81.8	81.3	40	55.1	3	7	292	0.00	29.734 
17:35	81.8	81.8	81.3	40	55.1	2	7	292	0.00	29.734 
17:40	81.6	81.6	81.0	39	54.2	3	9	315	0.00	29.734 
17:45	81.6	81.6	81.1	40	54.9	3	9	270	0.00	29.731 
17:50	81.6	81.6	81.2	41	55.6	2	5	315	0.00	29.731 
17:55	81.8	81.8	81.3	40	55.1	1	5	315	0.00	29.731 
18:00	81.6	81.6	81.1	40	54.9	2	4	270	0.00	29.737 
18:05	81.6	81.6	81.2	41	55.6	1	4	292	0.00	29.737 
18:10	81.4	81.4	81.1	41	55.4	1	6	315	0.00	29.737 
18:15	81.2	81.2	80.8	40	54.6	2	5	315	0.00	29.743 
18:20	81.2	81.2	81.1	43	56.5	2	6	292	0.00	29.743 
18:25	81.1	81.1	80.8	41	55.1	2	5	292	0.00	29.743 
18:30	80.9	80.9	80.7	41	55.0	2	4	315	0.00	29.752 
18:35	80.9	80.9	80.7	41	55.0	1	4	0	0.00	29.752 
18:40	80.9	80.9	80.9	43	56.3	1	3	315	0.00	29.752 
18:45	80.7	80.7	80.5	41	54.8	2	6	270	0.00	29.755 
18:50	80.5	80.5	80.4	41	54.6	2	5	270	0.00	29.755 
18:55	80.3	80.3	80.1	40	53.8	2	7	292	0.00	29.755 
19:00	80.1	80.1	80.2	42	54.9	1	4	315	0.00	29.756 
19:05	79.9	79.9	79.9	41	54.1	2	5	315	0.00	29.756 
19:10	79.9	79.9	79.9	41	54.1	2	5	270	0.00	29.756 
19:15	79.8	79.8	79.9	41	54.0	2	4	292	0.00	29.756 
19:20	79.8	79.8	80.0	42	54.6	2	4	315	0.00	29.756 
19:25	79.6	79.6	79.8	42	54.5	1	3	338	0.00	29.756 
19:30	79.4	79.4	79.8	43	54.9	1	6	270	0.00	29.758 
19:35	79.2	79.2	79.7	44	55.4	0	3	315	0.00	29.758 
19:40	79.2	79.2	79.7	44	55.4	1	3	315	0.00	29.758 
19:45	78.8	78.8	79.4	44	55.0	1	3	292	0.00	29.765 
19:50	78.6	78.6	79.4	46	56.1	0	1	292	0.00	29.765 
19:55	78.5	78.5	79.3	45	55.4	0	3	292	0.00	29.765 
20:00	78.3	78.3	79.2	45	55.2	1	2	292	0.00	29.770 
20:05	78.1	78.1	79.0	45	55.0	1	3	292	0.00	29.770 
20:10	77.9	77.9	79.0	46	55.4	0	2	292	0.00	29.770 
20:15	77.6	77.6	78.9	48	56.3	0	2	292	0.00	29.773 
20:20	77.4	77.4	78.8	49	56.7	0	0	---	0.00	29.773 
20:25	77.0	77.0	78.5	47	55.2	0	2	292	0.00	29.773 
20:30	76.8	76.8	78.5	49	56.2	0	1	292	0.00	29.777 
20:35	76.7	76.7	78.4	48	55.5	0	1	292	0.00	29.777 
20:40	76.3	76.3	78.2	50	56.3	0	0	---	0.00	29.777 
20:45	76.1	76.1	78.1	51	56.6	0	0	---	0.00	29.779 
20:50	75.8	75.8	78.0	52	56.9	0	1	292	0.00	29.779 
20:55	75.3	75.3	77.7	52	56.4	0	0	---	0.00	29.779 
21:00	74.9	74.9	74.9	53	56.6	0	0	---	0.00	29.785 
21:05	74.6	74.6	74.6	53	56.3	0	1	292	0.00	29.785 
21:10	74.2	74.2	74.2	54	56.5	0	0	---	0.00	29.785 
21:15	74.0	74.0	74.0	55	56.8	0	0	---	0.00	29.786 
21:20	73.7	73.7	73.7	55	56.5	0	0	---	0.00	29.786 
21:25	73.5	73.5	73.5	55	56.3	0	0	---	0.00	29.786 
21:30	73.2	73.2	73.2	56	56.5	0	0	---	0.00	29.792 
21:35	72.8	72.8	72.8	57	56.7	0	0	---	0.00	29.792 
21:40	72.5	72.5	72.5	57	56.4	0	0	---	0.00	29.792 
21:45	72.3	72.3	72.3	58	56.7	0	0	---	0.00	29.804 
21:50	72.0	72.0	72.0	58	56.4	0	0	---	0.00	29.804 
21:55	71.6	71.6	71.6	60	57.0	0	0	---	0.00	29.804 
22:00	71.5	71.5	71.5	59	56.4	0	0	---	0.00	29.812 
22:05	71.3	71.3	71.3	61	57.1	0	0	---	0.00	29.812 
22:10	70.9	70.9	70.9	62	57.2	0	0	---	0.00	29.812 
22:15	70.8	70.8	70.8	62	57.1	0	0	---	0.00	29.823 
22:20	70.4	70.4	70.4	63	57.2	0	0	---	0.00	29.823 
22:25	70.3	70.3	70.3	64	57.5	0	0	---	0.00	29.823 
22:30	69.9	69.9	69.9	64	57.2	0	0	---	0.00	29.826 
22:35	69.8	69.8	69.8	65	57.5	0	0	---	0.00	29.826 
22:40	69.6	69.6	69.6	66	57.7	0	0	---	0.00	29.826 
22:45	69.4	69.4	69.4	67	58.0	0	0	---	0.00	29.836 
22:50	69.3	69.3	69.3	67	57.9	0	0	---	0.00	29.836 
22:55	69.3	69.3	69.3	68	58.3	0	0	---	0.00	29.836 
23:00	69.1	69.1	69.1	69	58.5	0	0	---	0.00	29.840 
23:05	69.1	69.1	69.1	69	58.5	0	0	---	0.00	29.840 
23:10	69.1	69.1	69.1	71	59.3	0	0	---	0.00	29.840 
23:15	69.1	69.1	69.1	70	58.9	0	0	---	0.00	29.835 
23:20	69.1	69.1	69.1	70	58.9	0	0	---	0.00	29.835 
23:25	69.1	69.1	69.1	71	59.3	0	0	---	0.00	29.835 
23:30	69.3	69.3	69.3	71	59.5	0	0	---	0.00	29.836 
23:35	69.3	69.3	69.3	72	59.9	0	0	---	0.00	29.836 
23:40	69.3	69.3	69.3	72	59.9	0	0	---	0.00	29.836 
23:45	69.3	69.3	69.3	73	60.3	0	0	---	0.00	29.837 
23:50	69.4	69.4	69.4	73	60.4	0	0	---	0.00	29.837 
23:55	69.4	69.4	69.4	74	60.7	0	0	---	0.00	29.837 

CoCoRaHS
IN-AL-39
A2 Web Hosting
Creative Commons License
GoDaddy
search engine by freefind advanced

loaded 2018-11-15 16:33:45 • last modified 2010-11-18 10:43:29
Privacy PolicyDisclaimer
• wx.awcolley.com is powered by PmWiki v.2002016 •
• all content (unless otherwise noted) © 2018 A W Colley